This is the latest recevied weather packets stored in our database for station/object KB4RFE. If no packets are shown the sender has not sent any weather packets the latest 10 day(s).
| Time | Temp. | Humidity | Pressure | Rain* | Wind** | Luminosity | Snow |
|---|---|---|---|---|---|---|---|
| 1788043922 | 26.11° C | 90% | 1022.9 hPa | 0 mm | - | 24 W/m² | - |
| 1788043617 | 26.11° C | 90% | 1022.6 hPa | 0.51 mm | - | 27 W/m² | - |
| 1788043312 | 26.11° C | 90% | 1022.7 hPa | 0.51 mm | - | 26 W/m² | - |
| 1788043008 | 26.11° C | 90% | 1022.7 hPa | 0.51 mm | - | 26 W/m² | - |
| 1788042703 | 26.11° C | 89% | 1022.6 hPa | 1.27 mm | - | 24 W/m² | - |
| 1788042402 | 26.67° C | 89% | 1022.7 hPa | 1.27 mm | - | 25 W/m² | - |
| 1788042097 | 26.67° C | 89% | 1022.8 hPa | 1.78 mm | - | 34 W/m² | - |
| 1788041792 | 26.67° C | 89% | 1022.5 hPa | 1.78 mm | - | 55 W/m² | - |
| 1788041487 | 26.67° C | 88% | 1022.7 hPa | 2.29 mm | - | 58 W/m² | - |
| 1788041183 | 27.22° C | 87% | 1022.9 hPa | 2.29 mm | - | 58 W/m² | - |
| 1788040881 | 27.22° C | 87% | 1022.8 hPa | 1.78 mm | - | 58 W/m² | - |
| 1788040580 | 27.22° C | 86% | 1022.8 hPa | 1.78 mm | - | 52 W/m² | - |
| 1788040276 | 27.22° C | 85% | 1022.9 hPa | 1.78 mm | - | 50 W/m² | - |
| 1788039976 | 27.78° C | 85% | 1022.9 hPa | 0.51 mm | - | 55 W/m² | - |
| 1788039671 | 27.78° C | 84% | 1023 hPa | 0 mm | - | 63 W/m² | - |
| 1788039365 | 27.78° C | 84% | 1022.9 hPa | 0 mm | - | 69 W/m² | - |
| 1788039061 | 27.78° C | 82% | 1022.9 hPa | 0 mm | - | 78 W/m² | - |
| 1788038756 | 27.78° C | 83% | 1023.1 hPa | 0 mm | - | 94 W/m² | - |
| 1788038451 | 27.78° C | 83% | 1022.9 hPa | 0 mm | - | 128 W/m² | - |
| 1788038150 | 27.78° C | 83% | 1023 hPa | 0 mm | - | 162 W/m² | - |
| 1788037849 | 27.78° C | 84% | 1023.1 hPa | 0 mm | - | 192 W/m² | - |
| 1788037544 | 27.78° C | 85% | 1023.2 hPa | 0 mm | - | 206 W/m² | - |
| 1788037240 | 27.78° C | 85% | 1022.8 hPa | 0 mm | - | 207 W/m² | - |
| 1788036939 | 27.78° C | 84% | 1022.9 hPa | 0 mm | - | 207 W/m² | - |
| 1788036636 | 27.78° C | 85% | 1022.9 hPa | 0 mm | - | 214 W/m² | - |
* Rain latest hour (hover to see other rain measurements)
** Current wind speed in m/s (hover to see current wind gust speed)